Regional Weather Roundup
Issued by NWS

Home | Current Version | Previous Version | Text Only | Print | Product List | Glossary On
Versions: 1 2 3 4 5 6 7 8 9 10 11 12 13 14 15 16 17 18 19 20 21 22 23 24 25 26 27 28 29 30 31 32 33 34 35 36 37 38 39 40 41 42 43 44 45 46 47 48 49 50
000
ASHW40 PHFO 041543
RWRHI

WEATHER ROUNDUP FOR HAWAII
NATIONAL WEATHER SERVICE HONOLULU HI
500 AM HST MON MAY 04 2015

THIS IS AN AUTOMATED REPORT THAT HAS NOT BEEN QUALITY CONTROLLED.

NOTE..."FAIR" INDICATES FEW OR NO CLOUDS BELOW 12,000 FEET WITH NO
SIGNIFICANT WEATHER AND/OR OBSTRUCTIONS TO VISIBILITY.

* - THESE SITES REPORT LIMITED FIELDS

HIZ001>004-041600-
KAUAI-NIIHAU-

CITY           SKY/WX    TMP DP  RH WIND       PRES   REMARKS
LIHUE APT      MOCLDY    73  63  68 E14       30.03S
PORT ALLEN*      N/A     73 N/A N/A E13         N/A
POIPU*           N/A     73 N/A N/A NE7G15      N/A
PRINCEVILLE*     N/A     70 N/A N/A MISG        N/A
KOKOLE POINT*  NOT AVBL
MOLOAA DAIRY*  NOT AVBL
WAIMEA HTS*      N/A     72  59  64 NE5G13      N/A
PUU OPAE*        N/A     63  55  77 NE7         N/A
PUU LUA*       NOT AVBL
MAKAHA RIDGE*    N/A     66  55  68 E2          N/A
$$

HIZ005>011-041600-
OAHU-

CITY           SKY/WX    TMP DP  RH WIND       PRES   REMARKS
HONOLULU       PTCLDY    72  62  71 E10       29.99S
KALAELOA       CLEAR     71  62  73 NE5       30.00S
KANEOHE MCB    CLOUDY    75  62  64 VRB7      29.99S
WHEELER FIELD  FAIR      67  61  80 E8        30.00
BELLOWS*         N/A    N/A N/A N/A E18         N/A
KAHUKU*          N/A    N/A N/A N/A E7          N/A
WHEELER*       NOT AVBL
WAIANAE HARBOR NOT AVBL
DILLINGHAM*      N/A     72  61  68 MISG        N/A
KAHUKU TRN*      N/A    N/A N/A N/A E8G20       N/A
KAWAILOA*        N/A     68  59  73 E16G25      N/A
KII*             N/A     73  64  73 E12G18      N/A
MAKUA RANGE*     N/A     73  59  60 E10G18      N/A
OAHU FOREST NW   N/A    N/A N/A N/A CALM        N/A
SCHOFIELD BRK*   N/A     63  57  82 MISG        N/A
SCHOFIELD S*   NOT AVBL
WAIANAE VLY*     N/A     72  57  60 NE12G33     N/A
KUAOKALA*        N/A     70  59  68 E18G32      N/A
HONOULIUULI*   NOT AVBL
MOKUOLOE IS*     N/A    N/A N/A N/A MISG        N/A
PALEHUA*         N/A     63  57  82 NE16G26     N/A
WAIAWA PHB*    NOT AVBL
$$

HIZ012>013-041600-
MOLOKAI-

CITY           SKY/WX    TMP DP  RH WIND       PRES   REMARKS
MOLOKAI AIRPT  PTCLDY    71  62  73 NE14G25   29.99S
KALAUPAPA      NOT AVBL
MAKAPULAPAI*     N/A     72  64  78 E17G28      N/A
MOLOKAI 1*       N/A     63  57  82 NE9G18      N/A
PUU ALII*        N/A     55  55 100 CALM        N/A
$$

HIZ016-041600-
KAHOOLAWE-

CITY           SKY/WX    TMP DP  RH WIND       PRES   REMARKS
KAHOOLAWE*       N/A     66 N/A N/A E15G23      N/A
HAKIOAWA*        N/A     69  63  81 MISG      30.43R
HONOKANAIA*      N/A     73  61  65 NE13G29   29.99
KANELOA*         N/A     70  63  78 MISG        N/A
KEALIALALO*      N/A     70  63  78 E18G39    29.98R
LUA MAKIKA*    NOT AVBL
$$

HIZ014>015-041600-
LANAI-

CITY           SKY/WX    TMP DP  RH WIND       PRES   REMARKS
LANAI CITY     FAIR      66  62  87 NE14      30.03R
LANAI 1*         N/A     66  64  94 NE18G31     N/A
$$

HIZ017>028-041600-
MAUI-

CITY           SKY/WX    TMP DP  RH WIND       PRES   REMARKS
KAHULUI        MOCLDY    72  62  71 E13G29    29.99S
KAPALUA-W MAUI NOT AVBL
HANA AIRPORT   CLOUDY    68  66  94 CALM      30.05R
HANA*            N/A     68 N/A N/A S3          N/A
HALEAKALA SUMM   N/A     41   0  17 SE3G28      N/A
MAALAEA BAY*   NOT AVBL
HALEAKALA*     NOT AVBL
KAUPO GAP*       N/A     57  55  94 E9G22       N/A
KULA 1*          N/A     45  41  87 E5          N/A
$$

HIZ023>026-041600-
BIG ISLAND OF HAWAII COAST AND LOWER SLOPES-

CITY           SKY/WX    TMP DP  RH WIND       PRES   REMARKS
KAILUA KONA    PTCLDY    72  60  66 SE3       29.95S
HILO           CLOUDY    68  62  81 SW6       30.02S
HONOKAA*       NOT AVBL
KAWAIHAE MWT*    N/A     73 N/A N/A E3          N/A
KAWAIHAE*        N/A     72 N/A N/A NE5         N/A
SOUTH POINT*     N/A     66 N/A N/A NE21G31     N/A
UPOLU AIRPORT*   N/A    N/A N/A N/A E14G20      N/A
KAMUELA*       SUNNY     57  52  82 NE15      30.08R
HAKALAU*         N/A     46  46 100 SE3         N/A
KALOKO-HONOKO*   N/A     72  59  64 E2        29.95R
PALI 2*          N/A     57  54  88 N7G20       N/A
KEALAKOMO*       N/A     79  66  65 N10G17      N/A
KAUPULEHU*       N/A     64  55  72 SE3G9       N/A
KAPAPALA*        N/A     62  58  87 N7G13       N/A
LOWER KAHUKU*    N/A     57  55  94 VRB3G12     N/A
PUHE CS*         N/A     72  63  73 NE3         N/A
PUHO CS*         N/A     69  60  73 E3          N/A
PTA KEAMUKU*     N/A     52  46  82 CALM        N/A
WAIKOLOA*        N/A     64  55  72 E12G17      N/A
$$

HIZ027>028-041600-
BIG ISLAND OF HAWAII INTERIOR AND SUMMMITS-

CITY           SKY/WX    TMP DP  RH WIND       PRES   REMARKS
BRADSHAW FIELD CLOUDY    44  41  88 SE5       30.25
MK VISITOR CEN NOT AVBL
MAUNA KEA*       N/A     39 -20   7 CALM        N/A
MAUNA LOA*       N/A     41 -18   7 MISG        N/A
MAUNA LOA 1*   NOT AVBL
PTA KIPUKA*      N/A     45  43  93 E5          N/A
PTA RANGE 17*    N/A     50  46  87 SE9G18      N/A
PTA WEST*        N/A     72  64  78 SE6G14      N/A
NENE CABIN*      N/A     45 N/A N/A NE5G12      N/A
AHUMOA*          N/A     45  37  76 E7          N/A
PTA PORTABLE*  NOT AVBL
PUU MALI*        N/A     45  37  76 S3          N/A
$$

HIC003-041600-
NORTHWEST ISLANDS-

CITY           SKY/WX    TMP DP  RH WIND       PRES   REMARKS
MIDWAY ISLAND  MOCLDY    68 N/A N/A CALM      30.01S
MIDWAY NOS*    NOT AVBL
FRENCH FRIGATE NOT AVBL
$$

PHZ110>124-180-041600-
BUOY REPORTS

STATION/POSITION TIME  TEMP    WIND        PRES    WAVE   SWELL
                       AIR SEA DIR/SP/G            HT/PER HT/DIR
                 (UTC) (F)     (DEG/KT/KT) (MB)    (FT/S) (FT/D)
BUOY 51001       NOT AVBL
BUOY 51101       1500   74 76   90/ 14/ 16 1017.2F   6/ 9   5/ 90
BUOY 51100       NOT AVBL
BUOY 51002       1500   75 79  100/ 17/ 21 1013.3R   8/ 9   5/ 80
BUOY 51003       1500   76 79  100/ 10/ 12 1014.5F   7/ 8   7
BUOY 51004       1429   75 77   80/ 17/ 21 1014.5R   8/ 9   5/ 60
BARBERS PT BUOY  NOT AVBL
WAIMEA BAY BUOY  1500      77                N/A     4/ 8
KAILUA BAY BUOY  1500      77                N/A     7/ 7   2/ 60
LANAI BUOY       NOT AVBL
BARBERS PT 2     1500      77                N/A     5/ 8   2/180
PAUWELA MAUI     1500      76                N/A     7/ 8   2/ 40
HILO             1500      77                N/A     6/ 8   2/ 70
KANEOHE BAY BUOY 1500      76                N/A     6/ 7
HANALEI KAUAI    1500      78                N/A     7/ 8   2/ 40
KAHULUI HARBOR   1500   73 76   90/ 11/ 19 1015.2F
HONOLULU HARBOR  1500   74 78   50/  4/  8 1015.5S
KILO NALU        NOT AVBL
HILO HARBOR      NOT AVBL
MOKUOLOE         1500   75 77  100/  9/ 14 1016.2
NAWILIWILI       1500   74 77   60/ 13/ 15 1016.2S
WHOTS BUOY       NOT AVBL
BUOY 51028       NOT AVBL
$$

......................KEY........................................
  SKY/WX - SKY CONDITIONS/PRESENT WEATHER
  TMP    - TEMPERATURE IN FAHRENHEIT
  DWPT   - DEWPOINT IN FAHRENHEIT
  RH     - RELATIVE HUMIDITY IN PERCENT
  WIND   - DIRECTION AND SPEED /MPH FOR ISLANDS...KTS FOR BUOYS/
  PRES   - MEAN SEA LEVEL PRESSURE IN INCHES OF HG
  VSB    - VISIBILITY IN MILES
  HX     - HEAT INDEX
  WCI    - WIND CHILL INDEX
  VRB    - VARIABLE WIND DIRECTION
  N/A    - NOT AVAILABLE


USA.gov is the U.S. government's official web portal to all federal, state and local government web resources and services.